x

West Washington - 300nm West Of Aberdeen, Wa (46005) Weather Station

1:10pm - Tue 22nd Aug 2017 All times are UTC.

  • Wind
    9mph, 13mph gusts
  • Air Temp 65°f
  • Sea Pressure 1018.8mb

More Historic Weather Station data

Upgrade to MSW Pro to gain access to the past 30 days of data for over 8000 Wavebouys and Weather Stations around the globe.

Join

Comparision Forecast

View Surf forecast
   
Tue 08/22 1:10pm  -   -   -  9 13 mph 1018.8mb 65f
1:00pm  -   -   -  9 11 mph 1018.8mb 65f
12:50pm 4ft 12s 6s 9 11 mph 1018.8mb 65f
12:40pm 4ft  -  6s 9 11 mph 1018.9mb 65f
12:30pm  -   -   -  9 13 mph 1018.9mb 65f
12:20pm  -   -   -  9 16 mph 1018.9mb 65f
12:10pm  -   -   -  9 13 mph 1018.9mb 65f
12:00pm  -   -   -  9 11 mph 1018.9mb 65f
11:50am 4ft 8s 7s 11 13 mph 1019mb 65f
11:40am 4ft  -  7s 9 11 mph 1019.1mb 65f
11:30am  -   -   -  9 11 mph 1019.1mb 65f
11:20am  -   -   -  9 11 mph 1019.1mb 64f
11:10am  -   -   -  9 11 mph 1019.2mb 64f
11:00am  -   -   -  9 11 mph 1019.2mb 64f
10:50am 4ft 13s 7s 9 11 mph 1019.2mb 64f
10:40am 4ft  -  7s 9 11 mph 1019.2mb 64f
10:30am  -   -   -  9 11 mph 1019.2mb 64f
10:20am  -   -   -  9 11 mph 1019.2mb 64f
10:10am  -   -   -  9 11 mph 1019.2mb 64f
10:00am  -   -   -  9 11 mph 1019.2mb 64f
9:50am 3.5ft 8s 6s 9 11 mph 1019.2mb 64f
9:40am 3.5ft  -  6s 11 11 mph 1019.2mb 64f
9:30am  -   -   -  11 13 mph 1019.2mb 64f
9:20am  -   -   -  11 13 mph 1019.3mb 64f
9:10am  -   -   -  9 11 mph 1019.4mb 64f
9:00am  -   -   -  9 11 mph 1019.5mb 64f
8:50am 3.5ft 13s 7s 9 11 mph 1019.5mb 64f
8:40am 3.5ft  -  7s 9 11 mph 1019.5mb 64f
8:30am  -   -   -  9 11 mph 1019.6mb 64f
8:20am  -   -   -  9 11 mph 1019.7mb 64f
8:10am  -   -   -  7 9 mph 1019.7mb 64f
8:00am  -   -   -  4 9 mph 1019.8mb 63f
7:50am 3.5ft 13s 7s 7 9 mph 1019.9mb 63f
7:40am 3.5ft  -  7s 7 9 mph 1020mb 63f
7:30am  -   -   -  7 11 mph 1020mb 64f
7:20am  -   -   -  7 9 mph 1020.1mb 64f
7:10am  -   -   -  7 9 mph 1020.1mb 64f
7:00am  -   -   -  9 11 mph 1020.3mb 64f
6:50am 3.5ft 8s 7s 9 11 mph 1020.2mb 64f
6:40am 3.5ft  -  7s 9 11 mph 1020.3mb 64f
6:30am  -   -   -  9 11 mph 1020.4mb 63f
6:20am  -   -   -  7 16 mph 1020.5mb 63f
6:10am  -   -   -  7 9 mph 1020.6mb 63f
6:00am  -   -   -  7 9 mph 1020.7mb 63f
5:50am 3.5ft 13s 7s 7 9 mph 1020.8mb 63f
5:40am  -   -   -  9 9 mph 1020.8mb 63f
5:30am  -   -   -  9 11 mph 1020.8mb 63f
5:20am  -   -   -  7 9 mph 1021mb 63f
5:10am  -   -   -  7 9 mph 1020.9mb 63f
5:00am  -   -   -  7 9 mph 1021mb 63f
4:50am 4ft 14s 7s 4 7 mph 1021.1mb 63f
4:40am 4ft  -  7s 4 7 mph 1021.1mb 62f
4:30am  -   -   -  4 7 mph 1021.1mb 63f
4:20am  -   -   -  4 7 mph 1021.1mb 63f
4:10am  -   -   -  4 7 mph 1021mb 62f
4:00am  -   -   -  7 9 mph 1021.1mb 62f
3:50am 4.5ft 14s 7s 4 7 mph 1021.1mb 62f
3:40am 4.5ft  -  7s 4 7 mph 1021.1mb 62f
3:30am  -   -   -  7 9 mph 1021.1mb 62f
3:20am  -   -   -  7 7 mph 1021.1mb 62f
3:10am  -   -   -  7 9 mph 1021.1mb 62f
3:00am  -   -   -  7 9 mph 1021.1mb 63f
2:50am 4.5ft 14s 6s 7 9 mph 1021.1mb 63f
2:40am 4.5ft  -  6s 7 11 mph 1021.1mb 63f
2:30am  -   -   -  7 11 mph 1021.2mb 63f
2:20am  -   -   -  7 13 mph 1021.2mb 63f
2:10am  -   -   -  7 9 mph 1021.1mb 63f
2:00am  -   -   -  4 7 mph 1021.2mb 63f
1:50am 4.5ft 14s 6s 4 7 mph 1021.3mb 63f
1:40am  -   -   -  7 9 mph 1021.3mb 63f
1:30am  -   -   -  7 11 mph 1021.4mb 63f
1:20am  -   -   -  7 9 mph 1021.4mb 63f
1:10am  -   -   -  7 9 mph 1021.4mb 63f
1:00am  -   -   -  7 7 mph 1021.4mb 63f
12:50am 4.5ft 8s 6s 7 11 mph 1021.4mb 63f
12:40am  -   -   -  9 13 mph 1021.6mb 63f
12:30am 4.5ft  -  6s 7 11 mph 1021.6mb 63f
12:20am  -   -   -  9 11 mph 1021.7mb 63f
12:10am  -   -   -  9 11 mph 1021.7mb 63f
12:00am  -   -   -  7 9 mph 1021.9mb 63f
Mon 08/21 11:50pm 5ft 14s 6s 7 11 mph 1021.8mb 63f
11:40pm 5ft  -  6s 7 9 mph 1021.9mb 63f
11:20pm  -   -   -  11 13 mph 1022.2mb 63f
11:10pm  -   -   -  9 13 mph 1022.2mb 63f
11:00pm  -   -   -  9 11 mph 1022.3mb 63f
10:50pm 5ft 7s 6s 9 11 mph 1022.4mb 63f
10:40pm 5ft  -  6s 9 13 mph 1022.5mb 63f
10:30pm  -   -   -  11 13 mph 1022.5mb 63f
10:20pm  -   -   -  9 11 mph 1022.5mb 64f
10:10pm  -   -   -  7 9 mph 1022.5mb 64f
10:00pm  -   -   -  9 11 mph 1022.6mb 64f
9:50pm 4.5ft 14s 6s 7 9 mph 1022.6mb 64f
9:40pm 4.5ft  -  6s 7 9 mph 1022.7mb 64f
9:30pm  -   -   -  7 9 mph 1022.7mb 64f
9:20pm  -   -   -  7 9 mph 1022.8mb 64f
9:10pm  -   -   -  7 11 mph 1022.7mb 64f
9:00pm  -   -   -  7 9 mph 1022.7mb 64f
8:50pm 5ft 14s 6s 7 9 mph 1022.8mb 64f
8:40pm 5ft  -  6s 4 9 mph 1022.8mb 64f
8:30pm  -   -   -  7 9 mph 1022.8mb 64f
8:20pm  -   -   -  7 9 mph 1022.8mb 64f
8:10pm  -   -   -  7 9 mph 1022.9mb 64f
8:00pm  -   -   -  7 9 mph 1022.9mb 64f
7:50pm 5ft 9s 6s 7 9 mph 1022.9mb 64f
7:40pm  -   -   -  7 11 mph 1022.9mb 64f
7:30pm  -   -   -  9 11 mph 1022.9mb 64f
7:20pm  -   -   -  9 11 mph 1022.9mb 64f
7:10pm  -   -   -  9 13 mph 1023mb 64f
7:00pm  -   -   -  11 13 mph 1023mb 64f
6:50pm 5ft 8s 6s 11 13 mph 1023mb 64f
6:40pm  -   -   -  11 13 mph 1023mb 64f
6:30pm  -   -   -  11 13 mph 1022.9mb 64f
6:20pm  -   -   -  11 13 mph 1023mb 64f
6:10pm  -   -   -  11 13 mph 1023mb 64f
6:00pm  -   -   -  11 13 mph 1023mb 64f
5:50pm 5ft 8s 6s 11 13 mph 1023.1mb 64f
5:40pm  -   -   -  11 13 mph 1023.1mb 64f
5:30pm  -   -   -  11 13 mph 1023mb 64f
5:20pm  -   -   -  11 13 mph 1023.1mb 64f
5:10pm  -   -   -  11 13 mph 1023.1mb 64f
5:00pm  -   -   -  11 16 mph 1023.1mb 64f
4:50pm 5ft 9s 6s 13 16 mph 1023.1mb 64f
4:40pm 5ft  -  6s 11 16 mph 1023.1mb 64f
4:30pm  -   -   -  13 16 mph 1023.1mb 64f
4:20pm  -   -   -  11 16 mph 1023.1mb 64f
4:10pm  -   -   -  13 16 mph 1023.2mb 64f
4:00pm  -   -   -  13 16 mph 1023.1mb 64f
3:50pm 5ft 8s 6s 11 16 mph 1023.2mb 64f
3:40pm  -   -   -  11 13 mph 1023.2mb 64f
3:30pm  -   -   -  11 13 mph 1023.1mb 64f
3:20pm  -   -   -  13 16 mph 1023.1mb 64f
3:10pm  -   -   -  13 18 mph 1023.1mb 64f
3:00pm  -   -   -  11 16 mph 1023.1mb 64f
2:50pm 5ft 9s 6s 11 13 mph 1023mb 64f
2:40pm 5ft  -  6s 11 13 mph 1023mb 64f
2:30pm  -   -   -  11 13 mph 1022.9mb 64f
2:20pm  -   -   -  11 13 mph 1022.8mb 64f
2:10pm  -   -   -  11 13 mph 1022.7mb 64f
2:00pm  -   -   -  11 16 mph 1022.7mb 64f
1:50pm 5ft 15s 7s 11 16 mph 1022.6mb 64f
1:40pm  -   -   -  11 13 mph 1022.6mb 64f
1:30pm  -   -   -  11 16 mph 1022.5mb 64f
1:20pm  -   -   -  11 13 mph 1022.5mb 64f
1:10pm  -   -   -  11 13 mph 1022.5mb 64f
1:00pm  -   -   -  11 13 mph 1022.3mb 64f
12:50pm 5ft 10s 6s 9 13 mph 1022.3mb 64f
12:40pm  -   -   -  9 13 mph 1022.4mb 64f
12:30pm  -   -   -  11 13 mph 1022.3mb 64f
12:20pm  -   -   -  9 13 mph 1022.3mb 64f
12:10pm  -   -   -  9 13 mph 1022.3mb 64f
12:00pm  -   -   -  11 13 mph 1022.3mb 64f
11:50am 5ft 8s 6s 11 13 mph 1022.3mb 64f
11:40am 5ft  -  6s 11 16 mph 1022.4mb 64f
11:30am  -   -   -  11 13 mph 1022.4mb 64f
11:20am  -   -   -  11 16 mph 1022.5mb 64f
11:10am  -   -   -  11 13 mph 1022.5mb 64f
11:00am  -   -   -  13 16 mph 1022.6mb 64f
10:50am 5ft 9s 6s 13 18 mph 1022.5mb 64f
10:40am  -   -   -  11 16 mph 1022.6mb 64f
10:30am  -   -   -  13 16 mph 1022.6mb 64f
10:20am  -   -   -  13 18 mph 1022.6mb 64f
10:10am  -   -   -  11 16 mph 1022.5mb 64f
10:00am  -   -   -  11 16 mph 1022.5mb 64f
9:50am 5ft 9s 6s 11 13 mph 1022.5mb 64f
9:40am  -   -   -  11 13 mph 1022.6mb 64f
9:30am  -   -   -  11 16 mph 1022.6mb 64f
9:20am  -   -   -  11 16 mph 1022.6mb 64f
9:10am  -   -   -  11 13 mph 1022.7mb 64f
9:00am  -   -   -  11 16 mph 1022.7mb 64f
8:50am 5ft 7s 6s 11 13 mph 1022.7mb 64f
8:40am 5ft  -  6s 11 16 mph 1022.7mb 64f
8:30am  -   -   -  11 13 mph 1022.7mb 64f
8:20am  -   -   -  11 16 mph 1022.7mb 64f
8:10am  -   -   -  11 16 mph 1022.8mb 64f
8:00am  -   -   -  13 16 mph 1022.8mb 64f
7:50am 5ft 10s 6s 13 16 mph 1022.8mb 64f
7:40am  -   -   -  13 16 mph 1022.9mb 64f
7:30am  -   -   -  13 18 mph 1022.9mb 64f
7:20am  -   -   -  13 16 mph 1022.8mb 64f
7:10am  -   -   -  13 16 mph 1022.8mb 64f
7:00am  -   -   -  11 16 mph 1022.7mb 64f
6:50am 6ft 9s 6s 13 16 mph 1022.7mb 64f
6:40am 6ft  -  6s 13 16 mph 1022.8mb 64f
6:30am  -   -   -  13 16 mph 1022.7mb 64f
6:20am  -   -   -  13 18 mph 1022.8mb 64f
6:10am  -   -   -  13 18 mph 1022.9mb 64f
6:00am  -   -   -  13 16 mph 1022.9mb 64f
5:50am 6ft 8s 7s 13 16 mph 1022.9mb 63f
5:40am  -   -   -  13 16 mph 1022.9mb 63f
5:30am  -   -   -  13 16 mph 1023mb 63f
5:20am  -   -   -  13 18 mph 1023mb 63f
5:10am  -   -   -  13 18 mph 1023mb 63f
5:00am  -   -   -  13 16 mph 1023.1mb 63f
4:50am 6ft 10s 6s 13 16 mph 1023.1mb 63f
4:40am 6ft  -  6s 13 18 mph 1023.1mb 63f
4:30am  -   -   -  13 18 mph 1023.1mb 64f
4:20am  -   -   -  13 18 mph 1023.1mb 64f
4:10am  -   -   -  13 18 mph 1023mb 64f
4:00am  -   -   -  13 16 mph 1023mb 64f
3:50am 5.5ft 9s 6s 13 16 mph 1023mb 64f
3:40am  -   -   -  13 16 mph 1023mb 64f
3:30am  -   -   -  13 16 mph 1023.1mb 64f
3:20am  -   -   -  13 16 mph 1023mb 64f
3:10am  -   -   -  11 16 mph 1023mb 64f
3:00am  -   -   -  11 16 mph 1022.9mb 64f
2:50am 6ft 9s 6s 13 16 mph 1022.9mb 64f
2:40am 6ft  -  6s 13 16 mph 1023mb 64f
2:30am  -   -   -  13 16 mph 1022.9mb 64f
2:20am  -   -   -  13 18 mph 1023mb 64f
2:10am  -   -   -  13 18 mph 1023mb 64f
2:00am  -   -   -  13 18 mph 1023mb 64f
1:50am 5.5ft 10s 6s 13 18 mph 1023.1mb 64f
1:20am  -   -   -  13 16 mph 1023.2mb 64f
1:10am  -   -   -  13 16 mph 1023.2mb 64f
1:00am  -   -   -  13 16 mph 1023.2mb 64f
12:50am 5ft 15s 6s 13 16 mph 1023.1mb 64f
12:40am  -   -   -  13 16 mph 1023.2mb 64f
12:30am  -   -   -  13 16 mph 1023.2mb 65f
12:20am  -   -   -  13 16 mph 1023.2mb 64f
12:10am  -   -   -  13 16 mph 1023.1mb 64f
12:00am  -   -   -  13 16 mph 1023.1mb 64f
Sun 08/20 11:50pm 5ft 15s 6s 13 18 mph 1023.2mb 64f
11:40pm 5ft  -  6s 13 16 mph 1023.3mb 64f
11:20pm  -   -   -  13 16 mph 1023.3mb 64f
11:10pm  -   -   -  13 16 mph 1023.3mb 64f
11:00pm  -   -   -  13 18 mph 1023.3mb 64f
10:50pm 5ft 15s 6s 13 18 mph 1023.4mb 64f
10:40pm 5ft  -  6s 13 18 mph 1023.5mb 64f
10:30pm  -   -   -  13 18 mph 1023.5mb 64f
10:20pm  -   -   -  13 18 mph 1023.6mb 64f
10:10pm  -   -   -  16 18 mph 1023.6mb 64f
10:00pm  -   -   -  13 18 mph 1023.7mb 64f
9:50pm 4.5ft 15s 6s 13 18 mph 1023.7mb 64f
9:40pm  -   -   -  13 18 mph 1023.8mb 64f
9:30pm  -   -   -  13 18 mph 1023.8mb 64f
9:20pm  -   -   -  16 18 mph 1023.8mb 64f
9:10pm  -   -   -  13 18 mph 1023.8mb 64f
9:00pm  -   -   -  16 18 mph 1023.9mb 64f
8:50pm 4.5ft 15s 6s 16 18 mph 1023.9mb 64f
8:40pm 4.5ft  -  6s 13 18 mph 1023.9mb 64f
8:30pm  -   -   -  16 18 mph 1024mb 64f
8:20pm  -   -   -  16 18 mph 1024mb 64f
8:10pm  -   -   -  13 18 mph 1024mb 64f
8:00pm  -   -   -  13 18 mph 1024mb 64f
7:50pm 4.5ft 16s 6s 13 16 mph 1024mb 64f
7:40pm  -   -   -  13 16 mph 1024.1mb 64f
7:30pm  -   -   -  13 16 mph 1024.1mb 64f
7:20pm  -   -   -  13 18 mph 1024.1mb 64f
7:10pm  -   -   -  13 18 mph - 64f
7:00pm  -   -   -  13 18 mph 1024.1mb 64f
6:50pm 4.5ft 15s 6s 13 18 mph 1024.2mb 64f
6:40pm 4.5ft  -  6s 16 18 mph 1024.2mb 64f
6:30pm  -   -   -  16 18 mph 1024.2mb 64f
6:20pm  -   -   -  16 18 mph 1024.2mb 64f
6:10pm  -   -   -  13 18 mph 1024.3mb 64f
6:00pm  -   -   -  16 20 mph 1024.3mb 63f
5:50pm 4.5ft 16s 6s 13 18 mph 1024.4mb 63f
5:40pm  -   -   -  13 18 mph 1024.4mb 63f
5:30pm  -   -   -  13 18 mph 1024.4mb 63f
5:20pm  -   -   -  13 18 mph 1024.4mb 63f
5:10pm  -   -   -  16 18 mph 1024.4mb 63f
5:00pm  -   -   -  13 18 mph 1024.4mb 63f
4:50pm 5ft 10s 6s 13 16 mph 1024.4mb 63f
4:40pm 5ft  -  6s 13 16 mph 1024.4mb 63f
4:30pm  -   -   -  13 16 mph 1024.4mb 63f
4:20pm  -   -   -  13 16 mph 1024.4mb 63f
4:10pm  -   -   -  11 16 mph 1024.4mb 63f
4:00pm  -   -   -  11 13 mph 1024.4mb 62f
3:50pm 5ft 8s 6s 11 13 mph 1024.5mb 62f
3:40pm 5ft  -  6s 11 16 mph 1024.6mb 62f
3:30pm  -   -   -  16 18 mph 1024.6mb 62f
3:20pm  -   -   -  16 18 mph 1024.6mb 62f
3:10pm  -   -   -  13 18 mph 1024.6mb 62f
3:00pm  -   -   -  16 18 mph 1024.6mb 62f
2:50pm 5ft 10s 6s 16 18 mph 1024.6mb 62f
2:40pm 5ft  -  6s 13 18 mph 1024.6mb 63f
2:30pm  -   -   -  13 16 mph 1024.6mb 63f
2:20pm  -   -   -  16 20 mph 1024.6mb 62f
2:10pm  -   -   -  13 16 mph 1024.5mb 62f
2:00pm  -   -   -  13 18 mph 1024.5mb 63f
1:50pm 5.5ft 10s 7s 13 16 mph 1024.5mb 63f
1:40pm 5.5ft  -  7s 13 16 mph 1024.6mb 63f
1:30pm  -   -   -  11 16 mph 1024.6mb 62f
1:20pm  -   -   -  11 16 mph 1024.5mb 62f
1:10pm  -   -   -  13 18 mph 1024.5mb 62f
1:00pm  -   -   -  13 18 mph 1024.6mb 62f
12:50pm 5.5ft 16s 7s 16 22 mph 1024.6mb 62f
12:40pm 5.5ft  -  7s 13 18 mph 1024.5mb 63f
12:30pm  -   -   -  11 13 mph 1024.6mb 64f
12:20pm  -   -   -  11 18 mph 1024.5mb 63f
12:10pm  -   -   -  11 18 mph 1024.6mb 63f
12:00pm  -   -   -  11 13 mph 1024.7mb 63f
11:50am 5ft 10s 7s 11 13 mph 1024.7mb 63f
11:40am 5ft  -  7s 11 13 mph 1024.7mb 63f
11:30am  -   -   -  9 13 mph 1024.7mb 63f
11:20am  -   -   -  9 11 mph 1024.8mb 63f
11:10am  -   -   -  9 11 mph 1024.9mb 63f
11:00am  -   -   -  11 13 mph 1024.9mb 62f
10:50am 5ft 16s 7s 11 13 mph 1025mb 62f
10:40am 5ft  -  7s 9 13 mph 1025mb 62f
10:30am  -   -   -  9 11 mph 1025.1mb 62f
10:20am  -   -   -  9 11 mph 1025mb 62f
10:10am  -   -   -  7 11 mph 1025.1mb 62f
10:00am  -   -   -  9 13 mph 1025.2mb 62f
9:50am 5ft 16s 7s 11 13 mph 1025.3mb 62f
9:40am 5ft  -  7s 9 11 mph 1025.4mb 62f
9:30am  -   -   -  11 13 mph 1025.4mb 61f
9:20am  -   -   -  13 18 mph 1025.5mb 61f
9:10am  -   -   -  13 18 mph 1025.5mb 62f
9:00am  -   -   -  11 16 mph 1025.4mb 62f
8:50am 5ft 16s 7s 11 16 mph 1025.4mb 63f
8:40am 5ft  -  7s 11 13 mph 1025.6mb 62f
8:30am  -   -   -  13 16 mph 1025.6mb 62f
8:20am  -   -   -  13 16 mph 1025.7mb 62f
8:10am  -   -   -  11 16 mph 1025.8mb 62f
8:00am  -   -   -  13 16 mph 1025.8mb 62f
7:50am 5ft 16s 7s 13 18 mph 1025.8mb 62f
7:40am 5ft  -  7s 13 18 mph 1025.8mb 62f
7:30am  -   -   -  13 18 mph 1025.9mb 62f
7:20am  -   -   -  11 16 mph 1025.9mb 62f
7:10am  -   -   -  13 16 mph 1025.9mb 62f
7:00am  -   -   -  11 16 mph 1025.8mb 62f
6:50am 5ft 9s 7s 13 18 mph 1025.8mb 62f
6:40am 5ft  -  7s 11 18 mph 1025.9mb 62f
6:30am  -   -   -  11 18 mph 1026mb 62f
6:20am  -   -   -  11 16 mph 1026.1mb 62f
6:10am  -   -   -  11 16 mph 1026.2mb 62f
6:00am  -   -   -  11 16 mph 1026.2mb 62f
5:50am 5ft 10s 7s 11 16 mph 1026.3mb 62f
5:30am  -   -   -  9 13 mph 1026.5mb 63f
5:20am  -   -   -  11 13 mph 1026.5mb 63f
5:10am  -   -   -  9 13 mph 1026.5mb 63f
5:00am  -   -   -  9 13 mph 1026.5mb 63f
4:50am 5ft 15s 7s 9 13 mph 1026.6mb 63f
4:40am  -   -   -  9 11 mph 1026.6mb 63f
4:30am  -   -   -  9 13 mph 1026.6mb 63f
4:20am  -   -   -  11 13 mph 1026.6mb 63f
4:10am  -   -   -  9 13 mph 1026.4mb 63f
4:00am  -   -   -  9 13 mph 1026.5mb 63f
3:50am 5ft 10s 8s 9 11 mph 1026.4mb 63f
3:40am 5ft  -  8s 9 13 mph 1026.4mb 63f
3:30am  -   -   -  9 13 mph 1026.4mb 63f
3:20am  -   -   -  9 11 mph 1026.4mb 63f
3:10am  -   -   -  9 11 mph 1026.4mb 63f
3:00am  -   -   -  9 11 mph 1026.3mb 63f
2:50am 5ft 9s 7s 9 11 mph 1026.4mb 63f
2:40am 5ft  -  7s 9 11 mph 1026.5mb 62f
2:30am  -   -   -  9 11 mph 1026.4mb 62f
2:20am  -   -   -  9 13 mph 1026.5mb 63f
2:10am  -   -   -  9 13 mph 1026.6mb 63f
2:00am  -   -   -  9 13 mph 1026.7mb 63f
1:50am 6ft 10s 8s 11 16 mph 1026.8mb 62f
1:40am 6ft  -  8s 11 13 mph 1026.9mb 62f
1:30am  -   -   -  9 13 mph 1026.7mb 62f
1:20am  -   -   -  11 13 mph 1026.8mb 62f
1:10am  -   -   -  11 13 mph 1026.9mb 62f
1:00am  -   -   -  11 13 mph 1026.9mb 62f
12:50am 6ft 10s 7s 9 13 mph 1026.9mb 62f
12:40am 6ft  -  7s 9 13 mph 1027mb 62f
12:30am  -   -   -  9 11 mph 1027mb 62f
12:20am  -   -   -  9 11 mph 1027mb 62f
12:10am  -   -   -  9 13 mph 1027.1mb 62f
12:00am  -   -   -  11 13 mph 1027.3mb 62f
Sat 08/19 11:50pm 5.5ft 10s 7s 11 13 mph 1027.4mb 62f
11:40pm 5.5ft  -  7s 11 13 mph 1027.4mb 62f
11:20pm  -   -   -  9 13 mph 1027.5mb 62f
11:10pm  -   -   -  9 11 mph 1027.6mb 62f
11:00pm  -   -   -  9 11 mph 1027.7mb 62f
10:50pm 5.5ft 9s 7s 9 13 mph 1027.7mb 62f
10:40pm  -   -   -  9 11 mph 1027.7mb 62f
10:30pm 5.5ft  -  7s 9 11 mph 1027.7mb 62f
10:20pm  -   -   -  9 11 mph 1027.9mb 62f
10:10pm  -   -   -  9 13 mph 1027.9mb 62f
10:00pm  -   -   -  9 11 mph 1027.8mb 62f
9:50pm 5.5ft 8s 7s 9 11 mph 1027.9mb 62f
9:40pm 5.5ft  -  7s 9 11 mph 1028mb 62f
9:30pm  -   -   -  9 11 mph 1028.1mb 62f
9:20pm  -   -   -  9 11 mph 1028.1mb 62f
9:10pm  -   -   -  9 11 mph 1028.1mb 62f
9:00pm  -   -   -  9 11 mph 1028.1mb 62f
8:50pm 5ft 8s 7s 7 11 mph 1028.1mb 62f
8:40pm  -   -   -  9 13 mph 1028.3mb 62f
8:30pm  -   -   -  7 9 mph 1028.3mb 62f
8:20pm  -   -   -  7 9 mph 1028.3mb 62f
8:10pm  -   -   -  9 11 mph 1028.2mb 62f
8:00pm  -   -   -  9 11 mph 1028.3mb 62f
7:50pm 5ft 8s 7s 7 11 mph 1028.4mb 62f
7:40pm 5ft  -  7s 9 11 mph 1028.4mb 62f
7:30pm  -   -   -  7 11 mph 1028.4mb 62f
7:20pm  -   -   -  7 11 mph 1028.3mb 62f
7:10pm  -   -   -  9 13 mph 1028.3mb 62f
7:00pm  -   -   -  11 13 mph 1028.3mb 62f
6:50pm 5ft 9s 7s 9 13 mph 1028.3mb 62f
6:40pm 5ft  -  7s 9 13 mph 1028.3mb 62f
6:30pm  -   -   -  9 13 mph 1028.3mb 62f
6:20pm  -   -   -  9 11 mph 1028.3mb 62f
6:10pm  -   -   -  7 9 mph 1028.2mb 62f
6:00pm  -   -   -  7 9 mph 1028.2mb 62f
5:50pm 4.5ft 16s 6s 7 9 mph 1028.2mb 62f
5:40pm 4.5ft  -  6s 7 9 mph 1028mb 62f
5:30pm  -   -   -  9 11 mph 1027.9mb 62f
5:20pm  -   -   -  9 11 mph 1028mb 62f
5:10pm  -   -   -  9 11 mph 1027.9mb 62f
5:00pm  -   -   -  9 11 mph 1027.9mb 62f
4:50pm 4.5ft 8s 7s 9 13 mph 1027.9mb 62f
4:40pm  -   -   -  9 11 mph 1027.9mb 62f
4:30pm  -   -   -  11 13 mph 1027.9mb 62f
4:20pm  -   -   -  11 13 mph 1027.9mb 61f
4:10pm  -   -   -  11 16 mph 1027.9mb 62f
4:00pm  -   -   -  9 16 mph 1027.9mb 61f
3:50pm 5ft 16s 7s 9 13 mph 1027.9mb 61f
3:40pm 5ft  -  7s 11 16 mph 1027.8mb 61f
3:30pm  -   -   -  11 13 mph 1027.8mb 62f
3:20pm  -   -   -  9 13 mph 1027.8mb 62f
3:10pm  -   -   -  9 13 mph 1027.7mb 61f
3:00pm  -   -   -  11 13 mph 1027.6mb 62f
2:50pm 5ft 16s 7s 11 13 mph 1027.6mb 61f
2:40pm 5ft  -  7s 11 16 mph 1027.6mb 62f
2:30pm  -   -   -  13 16 mph 1027.6mb 62f
2:20pm  -   -   -  11 16 mph 1027.5mb 62f
2:10pm  -   -   -  11 16 mph 1027.5mb 62f
2:00pm  -   -   -  11 16 mph 1027.5mb 62f
1:50pm 5ft 8s 7s 11 16 mph 1027.4mb 62f
1:40pm 5ft  -  7s 11 16 mph 1027.4mb 62f
1:30pm  -   -   -  11 16 mph 1027.4mb 62f
1:20pm  -   -   -  13 16 mph 1027.4mb 62f
1:10pm  -   -   -  13 18 mph 1027.3mb 62f
1:00pm  -   -   -  11 16 mph 1027.4mb 62f
12:50pm 5ft 9s 7s 11 16 mph 1027.4mb 62f
12:40pm 5ft  -  7s 11 18 mph 1027.4mb 62f
12:30pm  -   -   -  11 13 mph 1027.3mb 62f
12:20pm  -   -   -  11 13 mph 1027.2mb 62f
12:10pm  -   -   -  11 13 mph 1027.4mb 62f
12:00pm  -   -   -  11 16 mph 1027.5mb 62f
11:50am 5ft 9s 7s 13 16 mph 1027.4mb 62f
11:40am 5ft  -  7s 11 16 mph 1027.4mb 61f
11:30am  -   -   -  11 13 mph 1027.5mb 61f
11:20am  -   -   -  11 13 mph 1027.5mb 61f
11:10am  -   -   -  13 18 mph 1027.5mb 61f
11:00am  -   -   -  13 18 mph 1027.4mb 62f
10:50am 5ft 9s 7s 13 16 mph 1027.4mb 62f
10:40am 5ft  -  7s 11 16 mph 1027.4mb 62f
10:30am  -   -   -  9 11 mph 1027.3mb 62f
10:20am  -   -   -  9 11 mph 1027.2mb 62f
10:10am  -   -   -  9 13 mph 1027.2mb 61f
10:00am  -   -   -  11 13 mph 1027.3mb 61f
9:50am 5ft 16s 7s 9 13 mph 1027.3mb 61f
9:40am 5ft  -  7s 11 16 mph 1027.3mb 61f
9:30am  -   -   -  11 16 mph 1027.4mb 61f
9:20am  -   -   -  11 16 mph 1027.4mb 61f
9:10am  -   -   -  11 16 mph 1027.5mb 61f
9:00am  -   -   -  11 13 mph 1027.6mb 61f
8:50am 4.5ft 16s 6s 11 13 mph 1027.6mb 61f
8:40am 4.5ft  -  6s 11 16 mph 1027.6mb 61f
8:30am  -   -   -  11 16 mph 1027.6mb 62f
8:20am  -   -   -  13 18 mph 1027.6mb 62f
8:10am  -   -   -  13 18 mph 1027.5mb 62f
8:00am  -   -   -  11 16 mph 1027.6mb 62f
7:50am 5ft 8s 6s 13 16 mph 1027.6mb 62f
7:40am  -   -   -  13 16 mph 1027.6mb 62f
7:30am  -   -   -  13 18 mph 1027.7mb 61f
7:20am  -   -   -  13 18 mph 1027.6mb 61f
7:10am  -   -   -  13 16 mph 1027.6mb 61f
7:00am  -   -   -  13 18 mph 1027.6mb 61f
6:50am 5ft 8s 6s 11 16 mph 1027.5mb 61f
6:40am 5ft  -  6s 13 20 mph 1027.6mb 62f
6:30am  -   -   -  13 18 mph 1027.6mb 62f
6:20am  -   -   -  13 16 mph 1027.6mb 62f
6:10am  -   -   -  11 16 mph 1027.6mb 62f
6:00am  -   -   -  13 18 mph 1027.6mb 62f
5:50am 5ft 9s 6s 13 18 mph 1027.6mb 62f
5:40am 5ft  -  6s 13 16 mph 1027.6mb 62f
5:30am  -   -   -  13 16 mph 1027.6mb 62f
5:20am  -   -   -  13 18 mph 1027.5mb 62f
5:10am  -   -   -  13 16 mph 1027.5mb 62f
5:00am  -   -   -  13 16 mph 1027.4mb 62f
4:50am 6ft 9s 7s 13 16 mph 1027.3mb 62f
4:40am 6ft  -  7s 13 16 mph 1027.4mb 62f
4:30am  -   -   -  13 16 mph 1027.2mb 62f
4:20am  -   -   -  13 16 mph 1027.1mb 62f
4:10am  -   -   -  13 16 mph 1026.9mb 62f
4:00am  -   -   -  13 16 mph 1026.9mb 62f
3:50am 6ft 8s 7s 13 16 mph 1026.9mb 62f
3:40am 6ft  -  7s 13 16 mph 1027mb 62f
3:30am  -   -   -  13 16 mph 1027mb 62f
3:20am  -   -   -  11 16 mph 1026.9mb 62f
3:10am  -   -   -  11 16 mph 1026.8mb 62f
3:00am  -   -   -  13 16 mph 1026.9mb 62f
2:50am 6ft 16s 7s 11 16 mph 1026.9mb 62f
2:40am  -   -   -  11 16 mph 1026.9mb 62f
2:30am  -   -   -  13 16 mph 1026.8mb 62f
2:20am  -   -   -  11 16 mph 1026.8mb 62f
2:10am  -   -   -  11 16 mph 1026.9mb 62f
2:00am  -   -   -  11 16 mph 1026.9mb 62f
1:50am 6ft 8s 6s 11 16 mph 1026.9mb 62f
1:40am 6ft  -  6s 13 16 mph 1026.9mb 62f
1:30am  -   -   -  11 13 mph 1026.9mb 62f
1:20am  -   -   -  11 16 mph 1026.8mb 62f
1:10am  -   -   -  11 16 mph 1026.8mb 62f
1:00am  -   -   -  11 13 mph 1026.7mb 62f
12:50am 6ft 9s 7s 11 13 mph 1026.8mb 62f
12:40am 6ft  -  7s 11 16 mph 1026.8mb 62f
12:30am  -   -   -  11 16 mph 1026.7mb 62f
12:20am  -   -   -  11 16 mph 1026.8mb 62f
12:10am  -   -   -  11 16 mph 1026.7mb 62f
12:00am  -   -   -  11 16 mph 1026.9mb 62f
Fri 08/18 11:50pm 6ft 10s 7s 11 16 mph 1026.9mb 62f
11:40pm 6ft  -  7s 11 16 mph 1026.9mb 62f
11:30pm  -   -   -  11 16 mph 1026.9mb 62f
11:20pm  -   -   -  11 16 mph 1026.9mb 62f
11:10pm  -   -   -  13 16 mph 1027mb 62f
11:00pm  -   -   -  13 16 mph 1027mb 62f
10:40pm  -   -   -  11 16 mph 1027.1mb 62f
10:30pm  -   -   -  13 16 mph 1027mb 62f
10:20pm  -   -   -  11 16 mph 1027.1mb 62f
10:10pm  -   -   -  11 16 mph 1027.1mb 62f
10:00pm  -   -   -  13 16 mph 1027mb 62f
9:50pm 6ft 9s 7s 13 18 mph 1027mb 62f
9:40pm  -   -   -  13 16 mph 1026.9mb 62f
9:30pm  -   -   -  13 16 mph 1026.8mb 62f
9:20pm  -   -   -  13 16 mph 1026.6mb 62f
9:10pm  -   -   -  13 16 mph 1026.6mb 62f
9:00pm  -   -   -  13 16 mph 1026.6mb 62f
8:50pm 6ft 9s 7s 13 16 mph 1026.5mb 62f
8:40pm  -   -   -  11 16 mph 1026.5mb 62f
8:30pm  -   -   -  13 16 mph 1026.5mb 62f
8:20pm  -   -   -  13 16 mph 1026.5mb 62f
8:10pm  -   -   -  13 16 mph 1026.4mb 62f
8:00pm  -   -   -  13 16 mph 1026.4mb 62f
7:50pm 6ft 9s 7s 13 18 mph 1026.4mb 62f
7:40pm  -   -   -  13 16 mph 1026.3mb 62f
7:30pm  -   -   -  13 16 mph 1026.2mb 62f
7:20pm  -   -   -  13 18 mph 1026.1mb 62f
7:10pm  -   -   -  13 18 mph 1026mb 62f
7:00pm  -   -   -  16 18 mph 1026.1mb 62f
6:50pm 6ft 8s 7s 16 18 mph 1026.1mb 62f
6:40pm  -   -   -  16 18 mph 1025.9mb 62f
6:30pm  -   -   -  16 18 mph 1025.9mb 62f
6:20pm  -   -   -  16 18 mph 1025.9mb 62f
6:10pm  -   -   -  13 18 mph 1025.8mb 62f
6:00pm  -   -   -  16 18 mph 1025.8mb 62f
5:50pm 6.5ft 10s 7s 16 20 mph 1025.7mb 62f
5:40pm 6.5ft  -  7s 16 18 mph 1025.6mb 62f
5:30pm  -   -   -  16 18 mph 1025.5mb 62f
5:20pm  -   -   -  16 20 mph 1025.5mb 63f
5:10pm  -   -   -  13 18 mph 1025.2mb 63f
5:00pm  -   -   -  16 20 mph 1025.2mb 63f
4:50pm 6ft 9s 7s 13 16 mph 1025.2mb 63f
4:40pm 6ft  -  7s 13 16 mph 1025mb 63f
4:30pm  -   -   -  11 16 mph 1025.1mb 63f
4:20pm  -   -   -  11 16 mph 1025mb 63f
4:10pm  -   -   -  11 13 mph 1025mb 63f
4:00pm  -   -   -  11 16 mph 1025mb 63f
3:50pm 6.5ft 11s 7s 13 16 mph 1025mb 63f
3:40pm  -   -   -  11 16 mph 1024.9mb 63f
3:30pm  -   -   -  13 16 mph 1024.8mb 63f
3:20pm  -   -   -  13 16 mph 1024.6mb 63f
3:10pm  -   -   -  13 18 mph 1024.7mb 63f
3:00pm  -   -   -  13 18 mph 1024.5mb 63f
2:50pm 6.5ft 9s 7s 13 18 mph 1024.6mb 63f
2:40pm 6.5ft  -  7s 13 18 mph 1024.4mb 63f
2:30pm  -   -   -  13 18 mph 1024.4mb 62f
2:20pm  -   -   -  16 20 mph 1024.3mb 62f